STARLINK-31692, 59577

Orbit data source: Space-Track

STARLINK-31692, 59577 is a payload satellite owned by SpaceX/Seattle (US) in LEO that was launched on Tue, 23 Apr 2024 UTC via an FALCON 9 launch vehicle from the Air Force Eastern Test Range (AFETR). Payload-class satellites include a variety of spacecraft equipped with specific instruments for various scientific and technological missions. These include communications satellites like Starlink; space stations such as the ISS; scientific satellites like the Hubble; Earth observation satellites from companies like Planet Labs, Umbra, and HawkEye 360; GPS; miniature CubeSats for education and research; and military/defense satellites.

Loading next visibility...
Identifier
59577, 2024-076P
Orbit
LEO
Last TLE update
6 hours ago
Origin
Manufacturer
SpaceX/Seattle
Mission
Operational spacecraft
Bus & Motor
STARLINK V2M, Unknown motor
Mass
730 kg wet, ~700 kg dry
Launch date (UTC)
2024-04-23 (1 year ago)
Launch vehicle
FALCON 9
Launch site
Air Force Eastern Test Range (AFETR)
Object type
Payload
Rocket body
Debris
Shape & HBR
Unknown
Radar Cross Section
Large (>1 m²)

Expand to show TLE details & history

TLE from 6 hours ago
0 STARLINK-31692
1 59577U 24076P   25182.16174373  .00000537  00000-0  29043-4 0  9999
2 59577  43.0002 349.5635 0001288 275.2575  84.8130 15.27580403 68037
Epoch: 2025-07-01T03:52Z
TLE epoch observation values (Epoch: 2025-07-01T03:52:54.658Z)
Latitude
0.00002°
Longitude
11.87461°
Altitude
482.744 km
Speed
7.626 km/s
True Right ascension
23h 18m 15s
True Declination
0° 00' 00"
Sunlit
Object was in daylight at epoch
Visualization orbit readout
Latitude
-37.87324°
Longitude
-113.44608°
Altitude
493.477 km
Speed
7.619 km/s
Apparent Right ascension
12h 17m 59s
Apparent Declination
-47° 17' 42"
Sunlit
Object is in full shadow
Visualization observer readout
Local Sidereal Time
21:17:25
Azimuth
241.904° WSW
Elevation
-56.978°
Doppler factor
1
Orbital elements
Apogee altitude
485.877 km
Perigee altitude
484.109 km
Semi-major axis
6,863.13 km
Eccentricity
0.00013
Inclination
43.0002°
RAAN
349.5635°
Arg. of periapsis
275.2575°
True anomaly
Unknown
Mean anomaly
84.813°
Eccentric anomaly
Unknown
Mean motion
3.81733 °/min
Orbital period
94.31 mins
BSTAR
0.000029043
Loading maneuver chart data...
Loading SW <> Apogee altitude chart data...
Loading historical data...
Loading historical data...
Loading historical data...
Loading historical data...
Loading historical data...
Loading historical data...
Loading historical data...

STARLINK-31692 Visibility forecast

Observer location: undefined°, undefined°

Span
Click to sort rows by Start time (UTC) header in descending order
Start Az.
Max El. time (UTC)
Max El. Az.
Max El.
End time (UTC)
End Az.
6 mins2025-07-01 15:06:06.512Z232.197° WSW2025-07-01 15:09:06.512Z123.394° SE39.673°2025-07-01 15:12:06.512Z76.518° E
6 mins2025-07-01 16:45:06.512Z278.393° WNW2025-07-01 16:48:06.512Z20.103° NNE38.348°2025-07-01 16:51:06.512Z71.325° E
5 mins2025-07-01 18:25:06.512Z297.799° NW2025-07-01 18:27:06.512Z27.222° NE41.395°2025-07-01 18:30:06.512Z91.64° ESE
5 mins2025-07-01 20:04:06.512Z264.714° W2025-07-01 20:06:06.512Z194.681° SSW34.037°2025-07-01 20:09:06.512Z137.11° SSE
|